Location: Newark
(33.6439°N, 114.9881°W)
Time: 20:09:45
(UTC+00:00)

Tiros 1 - Pass Details

Date: 25 July 2019
Orbit: 630 x 664 km, 48.4° (Epoch: 17 August)

Event Time Altitude Azimuth Distance (km) Brightness Sun altitude
Rises 22:30:18 0° 314° (NW) 2,997 10.9 51.1°
Reaches altitude 10° 22:33:15 10° 332° (NNW) 2,083 10.1 50.5°
Maximum altitude 22:36:45 20° 19° (NNE) 1,538 9.1 49.8°
Drops below altitude 10° 22:40:14 10° 65° (ENE) 2,074 9.5 49.0°
Sets 22:43:09 0° 83° (E) 2,980 10.2 48.4°
